RH
15 18 31 43 56 85 89 74 25 17 12 11 11 11 6 4 4 6 6 6 6 10 12 12 13 14 14 13 11 7 11 17 18 16 88 80 74 91 100 100 100 100 97 58
11 12 14 16 14 26 16 17 17 12 7 12 6 5 7 12 12 8 7 7 7 10 13 14 14 15 15 13 10 7 9 17 21 15 21 89 95 85 100 95 92 79 100 60
13 13 13 12 11 12 24 69 37 23 12 11 34 23 16 10 10 11 12 10 9 10 12 13 15 16 15 12 8 6 20 26 21 19 14 44 88 96 100 98 90 100 78 78
17 14 14 13 13 12 10 10 16 25 53 65 52 27 16 13 19 22 22 18 12 12 12 14 17 17 17 32 8 5 31 14 38 22 19 45 43 92 86 99 100 96 88 82
29 22 17 16 14 13 9 8 9 11 11 9 8 12 19 22 35 32 29 24 20 20 23 25 23 17 27 60 6 4 14 39 25 32 43 47 30 52 96 99 100 100 100 82
79 34 20 16 18 12 9 9 8 8 7 7 11 19 34 37 41 36 34 31 30 31 31 24 18 15 57 26 4 4 5 8 14 19 49 61 36 90 93 91 98 100 97 100
100 87 31 18 16 14 11 10 10 9 7 12 22 33 36 39 48 41 43 37 34 58 27 21 19 29 54 7 6 6 6 8 13 26 43 30 40 78 86 79 82 84 79 92
100 100 100 79 18 14 12 11 11 11 13 22 33 46 50 48 52 47 42 37 28 25 25 30 36 66 39 34 26 12 6 7 47 28 17 67 79 98 99 100 100 90 97 100
100 100 100 99 73 45 14 12 13 16 24 32 54 66 62 59 53 48 41 29 22 45 66 93 80 42 68 76 43 13 7 8 10 25 89 85 96 100 100 99 99 83 56 36
100 100 100 100 78 72 39 18 21 30 45 54 70 70 70 65 54 39 29 28 50 69 85 100 70 92 98 70 36 25 38 11 9 77 97 91 100 100 100 73 55 47 34 18
100 100 100 100 100 96 61 44 46 51 46 75 83 80 75 58 38 32 50 79 98 95 98 100 87 98 97 37 31 49 39 48 56 90 93 84 95 92 82 67 16 8 10 8
100 100 100 100 100 100 95 82 82 80 66 79 81 79 62 32 50 100 100 100 100 100 100 100 98 80 28 22 23 84 98 93 95 90 88 96 98 97 74 69 9 8 6 5
100 100 100 100 100 100 98 100 100 90 74 83 83 54 33 44 100 100 100 88 75 99 99 62 30 25 44 94 100 92 86 85 83 81 100 96 96 94 78 13 9 6 5 4
100 100 100 100 100 100 100 100 100 94 89 81 60 32 31 85 100 100 100 100 31 55 86 60 92 96 100 100 95 94 87 75 84 85 96 91 97 68 16 9 7 6 4 4
100 100 100 100 100 100 100 100 100 92 83 59 38 32 48 99 100 100 99 100 78 62 100 100 100 100 97 92 93 92 84 90 87 95 92 95 88 28 12 7 6 5 4 4
100 100 100 100 100 100 100 96 93 89 68 44 31 34 67 100 94 100 100 99 100 100 100 100 100 100 100 98 93 94 94 96 94 95 100 84 32 11 7 6 5 5 5 4
100 100 100 100 100 99 98 95 80 70 53 41 30 40 100 95 92 100 100 100 100 100 100 100 100 100 100 100 98 100 100 92 87 100 54 16 8 7 7 6 6 6 5 5
100 100 100 100 100 98 91 80 64 49 43 33 32 74 100 100 100 100 100 100 100 100 100 100 100 100 100 100 100 100 100 90 93 56 11 8 7 7 6 6 6 6 5 5
100 100 100 95 82 77 63 57 46 46 56 49 80 100 100 100 100 100 100 100 100 100 100 100 100 100 97 96 100 100 91 86 90 17 8 8 7 7 6 6 7 7 6 6
100 100 89 80 58 52 50 76 100 100 100 97 100 100 100 100 100 100 100 100 100 100 100 100 100 100 100 100 96 90 94 66 14 11 10 10 8 8 7 6 7 7 7 7
94 90 99 89 99 100 100 100 100 99 87 98 100 100 100 100 100 100 100 100 100 100 100 100 100 100 100 100 97 95 37 11 10 12 54 69 47 18 20 10 10 9 7 7
100 100 100 100 100 100 100 97 92 79 91 100 100 100 100 100 100 100 100 100 100 100 95 97 90 77 64 28 14 16 10 8 7 12 14 12 15 12 9 8 8 10 12 10
100 100 100 100 100 100 100 95 96 100 100 100 100 100 100 100 100 100 100 100 100 94 80 50 33 38 21 13 11 10 9 10 12 20 24 17 16 17 9 6 7 15 22 20
100 100 100 100 100 100 100 100 100 100 100 96 92 100 100 100 100 100 100 100 99 99 98 67 28 23 22 16 15 13 18 22 36 50 54 52 50 40 12 8 9 10 28 29
100 100 98 83 100 100 100 99 100 100 92 93 100 100 100 100 100 100 99 97 98 100 97 94 95 86 53 28 27 34 40 49 50 47 59 69 53 15 10 11 11 11 20 25
100 100 100 100 100 94 88 88 86 88 91 95 100 100 100 100 100 100 99 99 100 100 100 79 57 57 68 81 89 92 87 86 93 94 71 50 20 16 16 12 11 13 12 17
89 88 91 98 88 82 84 94 93 96 98 100 100 100 100 99 100 100 100 100 100 100 100 100 99 93 85 79 79 79 92 100 94 75 55 59 42 32 47 38 17 14 16 21
Wind_Speed
50 49 47 47 44 43 41 41 41 42 40 39 37 35 35 35 34 35 35 33 30 28 29 30 31 31 30 33 35 32 36 37 33 28 24 20 19 21 24 27 28 31 33 26
51 50 48 48 48 45 43 42 42 41 40 38 35 33 32 33 33 33 32 31 31 32 31 31 34 32 31 35 34 35 35 36 29 26 27 26 21 20 22 26 28 29 31 27
52 50 48 46 46 46 45 43 43 41 39 35 32 32 32 32 32 33 32 31 33 33 33 36 37 36 37 39 36 35 34 30 26 26 27 30 29 25 22 28 29 31 33 30
55 53 50 48 46 44 44 43 43 41 39 36 33 34 33 32 30 31 31 33 32 34 37 37 39 37 37 38 36 35 31 31 27 25 29 31 31 29 25 27 31 36 29 37
58 55 53 48 48 46 47 45 43 41 39 35 32 33 31 31 30 32 33 32 34 35 33 39 40 39 38 36 36 35 33 29 28 28 30 32 33 27 26 27 28 30 34 28
58 57 57 50 50 49 47 44 42 40 36 35 32 31 30 31 32 31 32 34 33 32 34 37 38 35 36 32 34 33 33 30 31 29 29 30 29 25 31 30 33 30 29 21
59 60 50 50 52 48 46 45 41 40 36 34 34 32 32 31 31 33 29 32 30 27 33 40 37 35 35 31 30 30 27 27 31 28 27 29 25 29 29 27 24 19 17 18
41 55 58 58 48 46 47 43 40 38 36 34 33 31 30 31 31 32 31 28 29 30 37 37 33 34 30 23 24 25 25 27 25 25 22 22 23 22 22 14 11 12 11 9
39 42 48 46 44 47 43 42 38 38 38 34 30 28 29 29 30 29 26 27 31 30 31 35 31 24 21 20 19 21 23 22 23 21 22 24 22 15 11 11 9 11 12 11
36 37 41 46 41 38 39 37 37 37 37 30 28 29 26 29 28 26 26 30 31 30 31 35 28 29 30 23 17 19 18 21 22 20 24 21 9 9 14 10 8 9 11 11
32 33 35 36 41 42 36 36 36 35 34 27 27 27 27 26 24 23 22 23 23 24 27 34 33 27 27 19 15 15 18 19 17 22 21 16 12 14 15 11 11 10 8 9
31 30 29 29 32 36 39 38 35 34 35 26 27 26 24 21 22 16 20 20 21 23 25 25 24 24 18 15 15 15 16 20 21 20 18 15 16 16 15 14 11 7 9 11
28 29 25 22 28 31 31 31 32 33 30 25 26 21 26 20 21 16 19 20 23 26 24 20 19 16 14 16 14 18 20 21 19 18 18 19 18 16 15 13 10 9 10 13
27 28 32 35 30 29 30 29 31 31 27 25 24 26 23 24 22 18 15 18 19 25 20 20 17 16 15 18 19 20 19 20 18 18 20 21 16 15 13 11 10 11 11 13
27 30 31 28 28 29 28 28 30 28 27 24 25 24 23 26 24 17 15 14 18 22 22 19 20 21 20 21 22 21 19 15 14 15 17 19 16 14 12 11 11 11 12 14
28 27 27 27 29 29 27 29 29 25 23 22 23 21 20 25 25 19 17 19 18 21 22 24 27 28 26 24 24 21 19 17 17 16 15 15 15 13 11 11 11 11 13 15
27 27 28 28 29 27 26 25 25 24 24 22 20 17 16 21 23 18 22 19 22 26 28 29 27 28 29 28 26 24 20 20 17 17 13 13 12 11 12 11 12 13 14 17
28 27 28 29 28 27 26 25 24 23 22 22 19 15 15 18 18 19 21 20 22 25 26 27 27 27 29 28 24 23 22 22 19 16 13 11 12 12 11 11 12 14 16 18
29 28 28 27 26 24 23 24 23 22 23 21 14 13 11 13 13 13 15 18 20 21 21 21 23 26 24 21 21 21 20 22 21 16 13 11 12 12 12 12 13 15 18 19
27 27 27 25 22 24 22 21 21 20 23 20 17 15 14 13 13 14 14 14 17 18 18 20 22 20 20 20 20 20 19 18 16 13 11 10 11 13 13 14 15 17 18 19
28 27 23 22 22 25 26 26 24 23 22 18 16 14 17 14 15 14 14 13 12 13 15 16 13 14 15 16 15 17 15 14 13 12 12 14 15 17 18 18 17 18 18 18
29 28 25 25 25 29 29 27 25 20 21 14 15 16 17 18 18 17 15 14 14 14 13 10 12 13 12 12 13 14 13 12 13 13 15 15 16 17 17 19 19 18 18 20
29 29 32 33 33 36 31 21 20 20 15 15 14 16 19 22 22 20 17 14 17 16 12 10 12 12 10 10 11 11 12 12 12 12 13 15 16 17 19 19 20 18 20 21
28 39 39 28 31 27 23 23 23 22 18 18 18 18 22 22 20 21 17 12 16 18 16 14 12 12 13 13 12 12 13 14 15 17 17 18 19 20 21 20 22 20 19 23
36 26 22 21 19 19 16 16 18 19 17 14 14 16 16 18 18 17 15 16 12 11 14 14 16 14 13 14 14 15 15 16 17 17 19 20 21 20 21 21 22 22 21 23
27 28 24 20 17 12 15 14 14 17 19 16 15 16 16 16 15 15 16 16 16 16 16 15 14 15 16 17 18 18 17 18 19 20 20 21 21 21 22 23 22 24 24 24
27 25 22 20 17 16 13 13 16 17 17 16 15 13 12 11 12 12 14 15 15 15 15 16 15 15 16 17 18 19 21 21 20 20 21 23 23 23 24 25 26 25 26 27
Wind_Direction
241 242 242 242 243 245 244 243 245 246 247 249 251 252 256 256 254 256 259 260 259 258 259 264 273 279 283 290 291 282 273 270 266 265 258 264 267 273 271 272 274 269 264 266
236 238 237 240 241 240 242 242 241 244 247 248 252 252 250 254 256 254 256 257 257 258 263 269 272 277 283 286 280 275 266 263 262 259 253 257 252 268 276 271 273 267 272 260
234 234 236 236 238 239 238 241 242 242 245 246 251 256 255 253 248 253 261 259 260 258 262 268 278 282 283 283 277 269 266 265 266 262 257 256 253 258 264 266 265 265 265 269
233 232 233 235 236 238 239 241 245 247 249 252 253 252 252 249 254 257 260 259 260 261 266 273 277 277 281 277 272 266 262 261 257 255 253 257 256 261 274 272 269 266 283 274
230 229 233 234 235 236 240 241 243 246 251 251 247 246 248 251 259 255 258 259 260 266 276 272 273 282 277 270 259 259 254 250 250 248 255 262 262 259 274 283 275 278 281 292
226 231 233 233 234 237 239 242 243 247 246 250 245 241 244 249 255 260 261 263 266 270 264 270 280 278 278 266 257 259 255 251 247 252 255 261 270 265 282 286 297 291 291 272
227 226 230 235 237 237 239 240 243 243 244 242 243 243 245 253 259 258 260 265 269 262 268 272 278 268 276 262 253 250 247 246 250 256 260 264 272 286 297 299 291 282 277 285
227 228 229 229 235 236 238 241 242 243 243 239 240 247 252 255 255 259 260 259 260 267 271 277 270 279 270 260 249 244 241 241 250 258 264 280 287 297 307 300 282 284 285 271
226 226 228 226 229 234 236 237 237 238 240 240 242 247 252 255 258 260 262 260 266 265 258 259 264 270 258 263 250 238 237 242 248 254 265 284 289 295 298 282 283 283 289 285
222 222 225 225 224 227 229 230 233 236 241 244 248 252 246 251 253 254 255 265 269 265 252 244 254 266 262 268 244 236 235 238 241 247 268 275 269 256 277 278 286 281 281 289
219 219 219 224 225 222 225 227 232 237 243 250 248 245 241 245 250 258 263 266 264 258 248 241 247 267 257 248 230 235 237 241 245 257 257 258 245 265 269 289 295 288 288 297
217 215 214 215 222 226 228 229 236 242 245 239 236 234 233 237 241 253 267 268 262 239 231 236 252 252 235 226 227 236 241 245 247 255 248 249 256 270 277 294 294 291 304 312
214 207 197 205 216 219 224 222 223 228 232 221 219 223 225 226 215 247 266 267 248 237 236 231 213 206 212 211 222 241 242 246 250 254 249 241 258 274 278 281 284 300 313 326
205 197 193 206 214 214 215 212 214 217 217 209 209 213 222 216 215 240 272 257 234 215 214 213 211 214 223 227 236 248 256 258 255 246 243 242 253 268 270 278 287 302 317 330
194 188 195 204 204 207 208 205 209 209 207 199 203 210 224 215 215 228 244 244 220 208 204 205 236 231 233 237 244 253 254 248 241 234 237 240 255 261 264 273 287 301 320 329
189 192 198 199 202 202 197 197 202 201 205 204 204 214 225 213 214 238 229 222 209 213 216 222 234 236 241 243 249 254 244 234 236 240 236 239 248 253 263 274 289 303 316 324
185 191 194 195 195 190 191 196 201 205 210 208 211 217 211 215 224 242 230 236 231 239 237 239 247 250 243 248 252 255 245 232 233 236 241 244 251 257 264 279 293 305 313 315
186 188 188 187 184 184 189 198 202 208 215 218 216 214 214 217 232 235 237 241 239 245 248 248 246 247 247 251 253 253 238 223 228 237 239 246 257 262 271 285 299 306 310 313
181 176 177 180 181 181 192 197 202 206 213 219 211 223 218 233 239 236 237 241 246 246 246 249 245 244 250 253 245 237 233 223 229 236 240 249 262 270 280 292 304 309 311 312
172 174 176 177 174 182 184 183 188 197 207 212 213 207 216 216 227 241 239 241 238 242 244 245 244 243 244 243 226 226 215 214 227 232 241 262 281 289 294 301 307 309 312 314
163 157 164 169 171 173 184 183 185 199 202 206 209 219 205 219 237 249 251 237 234 235 235 238 236 221 224 213 204 205 217 224 233 239 268 276 280 288 295 294 301 307 307 311
164 167 170 168 172 177 184 193 201 200 198 207 215 219 229 233 244 252 250 231 226 210 212 201 187 205 192 199 210 217 226 232 238 246 258 265 275 282 289 293 298 300 309 312
162 162 166 167 176 184 191 199 201 202 212 219 235 233 233 236 241 242 248 232 215 203 200 206 213 210 210 218 221 227 233 240 246 259 272 276 281 290 290 291 291 292 302 304
172 168 174 178 175 190 205 212 212 219 225 235 238 231 225 229 231 234 236 230 215 211 205 209 215 218 222 227 231 232 237 244 256 267 272 276 281 284 284 285 287 286 295 300
170 186 189 194 197 202 200 200 205 212 221 243 235 216 208 211 216 220 227 230 231 230 212 224 227 227 230 232 236 242 249 258 263 265 272 279 277 277 281 283 286 286 292 296
176 186 190 193 194 185 207 217 221 225 233 254 225 215 213 214 216 215 225 233 234 226 220 220 225 230 235 241 247 254 258 264 270 275 272 275 275 278 285 286 287 288 289 295
189 189 192 199 206 212 224 226 224 224 226 222 217 214 219 218 223 227 230 229 234 240 236 233 232 232 235 241 249 254 263 272 273 273 272 276 280 283 286 286 285 287 292 295